{"data":{"norad_id":58102,"epoch":"2026-05-24T18:44:44.850624Z","epoch_age_seconds":93856,"freshness":"FRESH","line1":"1 58102U 23161F   26144.78107466 -.00000277  00000+0  27749-5 0  9995","line2":"2 58102  53.1595 171.9469 0001089  88.1299 271.9827 15.30190183146073","mean_motion":15.30190183,"eccentricity":0.0001089,"inclination_deg":53.1595,"raan_deg":171.9469,"arg_perigee_deg":88.1299,"mean_anomaly_deg":271.9827,"bstar":2.7749e-6,"rev_number":14607,"period_min":94.105949443279,"perigee_km":474.49804813608,"apogee_km":475.99071460094,"semimajor_km":6853.3813813685,"source":"CELESTRAK","updated_at":"2026-05-25T13:38:18.526970Z"}}